Погода в Лебедевке

Россия / Тюменская область     56°47′24″N   66°57′24″E
темп.,
°C
ветер,
м/с
пор.,
м/с
влажн.,
%
обл.,
%
осадки,
мм/ч
давл.,
гПа
погр.,
м
23 апреля, пт
пт2323:00+7ююв6155078 0.0 1036521
02:00+5ююв61548100 0.0 1036445
05:00+4ююв5125679 0.0 1036306
08:00+7ю51060100 0.0 1036367
11:00+12ю6946100 0.0 1035823
14:00+12ю6944100 0.0 1035873
17:00+13ю694095 0.0 10341519
20:00+10ю51146100 0.0 1034635
24 апреля, сб
сб2423:00+8ю41147100 0.0 1033447
02:00+6ююв41148100 0.0 1032355
05:00+5ююв41051100 0.0 1031311
08:00+6ююв5947100 0.0 1030412
11:00+9ююв5841100 0.0 1029723
14:00+11ююв5736100 0.0 10271178
17:00+10ююв5739100 0.0 1026954
20:00+8юв4948100 0.0 1026539
25 апреля, вс
вс2523:00+6юв51154100 0.0 1024414
02:00+5юв41057100 0.0 1022381
05:00+5юв41060100 0.0 1021392
08:00+6вюв4958100 0.0 1019384
11:00+10юв694198 0.0 10171034
14:00+14юв6830100 0.0 10152096
17:00+14ююв683594 0.0 10142160
20:00+10ю486462 0.0 1014795
26 апреля, пн
пн2623:00+7ю38806 0.0 1012315
02:00+8ю5127893 0.3 1010636
05:00+6зюз6128797 0.4 1011648
08:00+6зюз6127367 0.2 10121257
11:00+8з7125998 0.4 10141623
14:00+12з71133100 0.3 10152801
17:00+11з8124564 0.5 10162026
20:00+8зюз512552 0.1 1017542
27 апреля, вт
вт2723:00+6юз411590 0.1 1017264
02:00+5зюз3957100 0.0 1018217
05:00+5юз3761100 0.0 1018140
08:00+8ююз3851100 0.0 1017300
11:00+8ююз5660100 0.0 10151006
14:00+7юв4782100 0.9 1013797
17:00+5в41090100 4.1 1009628
20:00+5в3695100 3.3 1007385